Weather in San Juan

Argentina     31°32′16″S   68°31′25″W
temp.,
°C
wind,
m/s
gust,
m/s
humid.,
%
clouds,
%
prec.,
mm/h
press.,
hPa
HPBL,
m
5 march, fri
fri500:00+28sse22350 0.0 101644
03:00+27ssw23380 0.0 101547
06:00+25sse12440 0.0 101433
09:00+27ese12400 0.0 1016149
12:00+31nne34290 0.0 10141194
15:00+35nne66220 0.0 10102443
18:00+35nne54200 0.0 10071962
21:00+30n12280 0.0 1009103
6 march, sat
sat600:00+29nnw36310 0.0 1011202
03:00+27n611330 0.0 1010223
06:00+26nnw48370 0.0 1009153
09:00+28n35360 0.0 1011299
12:00+33nne54250 0.0 10101020
15:00+35ne33200 0.0 10081991
18:00+36ne22180 0.0 10062197
21:00+32ne23260 0.0 1008273
7 march, sun
sun700:00+30n6102959 0.9 1011289
03:00+28nnw6103448 1.1 1010245
06:00+26n23400 0.0 101057
09:00+28nne23360 0.0 1012186
12:00+33nne34250 0.0 10101182
15:00+36ne43200 0.0 10081945
18:00+36e12190 0.0 10062182
21:00+33s45240 0.0 1009180
8 march, mon
mon800:00+30sw12310 0.0 101160
03:00+29s45330 0.0 1012101
06:00+26s1418293 0.0 10151023
09:00+25s1114332 0.0 10181379
12:00+28s892832 0.0 10171591
15:00+30sse772516 0.0 10141757
18:00+30s44260 0.0 10121575
21:00+28ssw45300 0.0 1013212
9 march, tue
tue900:00+26sw12350 0.0 101573
03:00+25sse23370 0.0 101378
06:00+24ssw34420 0.0 101389
09:00+25sse23390 0.0 1013244
12:00+29ne23300 0.0 10121023
15:00+33nne55240 0.0 10081523
18:00+34nne44220 0.0 10061649
21:00+31n69270 0.0 1007384